This is the latest recevied weather packets stored in our database for station/object K3HM. If no packets are shown the sender has not sent any weather packets the latest 10 day(s).
| Time | Temp. | Humidity | Pressure | Rain* | Wind** | Luminosity | Snow |
|---|---|---|---|---|---|---|---|
| 1777720969 | 0.56° C | 98% | 1015.5 hPa | 0 mm | - | 24 W/m² | - |
| 1777720666 | 0.56° C | 98% | 1015.5 hPa | 0 mm | - | 27 W/m² | - |
| 1777720363 | 0.56° C | 98% | 1015.4 hPa | 0 mm | - | 37 W/m² | - |
| 1777720061 | 0.56° C | 98% | 1015.1 hPa | 0 mm | - | 36 W/m² | - |
| 1777719758 | 0° C | 98% | 1015.1 hPa | 0 mm | - | 32 W/m² | - |
| 1777719456 | 0° C | 98% | 1015.3 hPa | 0 mm | - | 25 W/m² | - |
| 1777719152 | 0° C | 98% | 1015.3 hPa | 0 mm | - | 26 W/m² | - |
| 1777718850 | 0° C | 98% | 1015.1 hPa | 0 mm | - | 25 W/m² | - |
| 1777718548 | 0° C | 97% | 1015 hPa | 0 mm | - | 19 W/m² | - |
| 1777718245 | 0° C | 97% | 1015 hPa | 0 mm | - | 14 W/m² | - |
| 1777717943 | 0° C | 96% | 1015.1 hPa | 0 mm | - | 6 W/m² | - |
| 1777717639 | 0° C | 96% | 1015.1 hPa | 0 mm | - | 6 W/m² | - |
| 1777717336 | 0° C | 96% | 1015.1 hPa | 0 mm | - | 5 W/m² | - |
| 1777717034 | 0° C | 96% | 1015.3 hPa | 0 mm | - | 3 W/m² | - |
| 1777716732 | 0° C | 96% | 1015.4 hPa | 0 mm | - | 2 W/m² | - |
| 1777716430 | 0° C | 95% | 1015.4 hPa | 0 mm | - | 1 W/m² | - |
| 1777716128 | 0° C | 95% | 1015.4 hPa | 0 mm | - | 0 W/m² | - |
| 1777715826 | 0.56° C | 95% | 1015.4 hPa | 0 mm | - | 0 W/m² | - |
| 1777715523 | 0.56° C | 94% | 1015.3 hPa | 0 mm | - | 0 W/m² | - |
| 1777715220 | 0.56° C | 94% | 1015.4 hPa | 0 mm | - | 0 W/m² | - |
| 1777714919 | 0.56° C | 94% | 1015.3 hPa | 0 mm | - | 0 W/m² | - |
| 1777714616 | 0.56° C | 94% | 1015.3 hPa | 0 mm | - | 0 W/m² | - |
| 1777714313 | 1.11° C | 93% | 1015.1 hPa | 0 mm | - | 0 W/m² | - |
| 1777714011 | 1.11° C | 93% | 1014.9 hPa | 0 mm | - | 0 W/m² | - |
| 1777713709 | 1.11° C | 93% | 1014.9 hPa | 0 mm | - | 0 W/m² | - |
* Rain latest hour (hover to see other rain measurements)
** Current wind speed in m/s (hover to see current wind gust speed)